Location: Kaseke
(18.0171°S, 31.0526°E)
Time: 12:19:56
(UTC+00:00)

Delta 7925 Rocket - Pass Details

Date: 14 July 2020
Orbit: 645 x 1648 km, 26.3° (Epoch: 07 August)

Event Time Altitude Azimuth Distance (km) Brightness Sun altitude
Exits shadow 03:01:33 28° 197° (SSW) 1,209 4.2 -20.1°
Maximum altitude 03:02:15 29° 180° (S) 1,173 4.3 -19.9°
Drops below altitude 10° 03:06:23 10° 119° (ESE) 2,080 6.3 -19.0°
Sets 03:09:06 0° 107° (ESE) 3,060 7.5 -18.4°
